GW0996 Weather Reports


time (UTC)temp
C
wind
direction
speed
KPH
gust
KPH
rain 1hr
cm
rain 24hr
cm
rain mn
cm
humidity
%
barometer
mb
20260504200440 16 152 0.0 1.6 0.00 0.00 0.00 55 1016.9
20260504195941 16 14 0.0 3.2 0.00 0.00 0.00 55 1017.0
20260504195441 16 336 0.0 3.2 0.00 0.00 0.00 54 1016.9
20260504194942 16 84 0.0 1.6 0.00 0.00 0.00 53 1016.9
20260504194444 16 36 0.0 3.2 0.00 0.00 0.00 53 1017.1
20260504193428 16 127 0.0 1.6 0.00 0.00 0.00 51 1016.6
20260504192928 17 91 0.0 0.0 0.00 0.00 0.00 51 1016.6
20260504192427 17 99 0.0 3.2 0.00 0.00 0.00 51 1016.5
20260504191429 17 305 0.0 3.2 0.00 0.00 0.00 49 1016.5
20260504185929 17 160 0.0 3.2 0.00 0.00 0.00 45 1016.2
20260504185431 18 149 0.0 4.8 0.00 0.00 0.00 45 1016.0
20260504184905 18 145 4.8 4.8 0.00 0.00 0.00 45 1016.4
20260504184404 18 182 0.0 3.2 0.00 0.00 0.00 45 1016.4
20260504183904 18 149 0.0 3.2 0.00 0.00 0.00 44 1016.2
20260504183354 18 161 1.6 6.4 0.00 0.00 0.00 43 1016.2
20260504182853 18 167 0.0 6.4 0.00 0.00 0.00 43 1016.4
20260504182354 18 137 1.6 3.2 0.00 0.00 0.00 42 1016.4
20260504181852 18 141 1.6 4.8 0.00 0.00 0.00 42 1016.5
20260504180853 18 238 0.0 1.6 0.00 0.00 0.00 42 1016.2
20260504180356 18 153 0.0 1.6 0.00 0.00 0.00 41 1016.0
20260504175853 18 162 0.0 1.6 0.00 0.00 0.00 42 1016.5
20260504175355 18 206 1.6 1.6 0.00 0.00 0.00 41 1016.3
20260504174853 18 129 0.0 3.2 0.00 0.00 0.00 42 1016.0
20260504174354 18 129 0.0 3.2 0.00 0.00 0.00 40 1016.0
20260504173858 18 176 0.0 3.2 0.00 0.00 0.00 39 1016.1
20260504173355 19 152 0.0 1.6 0.00 0.00 0.00 40 1015.9
20260504172851 19 152 0.0 1.6 0.00 0.00 0.00 38 1015.8
20260504172353 20 220 0.0 3.2 0.00 0.00 0.00 39 1015.9
20260504171851 20 150 0.0 3.2 0.00 0.00 0.00 42 1015.9
20260504171353 20 212 0.0 1.6 0.00 0.00 0.00 39 1015.9
20260504170354 20 227 0.0 3.2 0.00 0.00 0.00 40 1015.9
20260504160353 22 186 0.0 1.6 0.00 0.00 0.00 41 1015.8
20260504150853 22 197 0.0 1.6 0.00 0.00 0.00 39 1015.9
20260504150354 22 196 0.0 1.6 0.00 0.00 0.00 39 1015.9
20260504140854 23 203 0.0 1.6 0.00 0.00 0.00 37 1016.0
20260504140406 23 180 0.0 1.6 0.00 0.00 0.00 37 1016.1
20260504110228 23 109 0.0 3.2 0.00 0.00 0.00 39 1017.4
20260504100153 23 114 0.0 1.6 0.00 0.00 0.00 36 1018.3
20260504081643 18 332 0.0 1.6 0.00 0.00 0.00 59 1018.6
20260504081141 17 345 0.0 1.6 0.00 0.00 0.00 63 1018.6
20260504080641 17 345 0.0 1.6 0.00 0.00 0.00 62 1018.6
20260504080139 17 338 0.0 1.6 0.00 0.00 0.00 63 1018.6
20260504060116 9 328 0.0 0.0 0.00 0.00 0.00 85 1018.7
20260504045554 6 328 0.0 0.0 0.00 0.00 0.00 92 1018.7
20260504045054 6 328 0.0 0.0 0.00 0.00 0.00 92 1018.6
20260504044553 6 328 0.0 0.0 0.00 0.00 0.00 92 1018.6
20260504044054 6 329 0.0 0.0 0.00 0.00 0.00 92 1018.5
20260504043553 5 328 0.0 0.0 0.00 0.00 0.00 92 1018.2
20260504042553 5 328 0.0 0.0 0.00 0.00 0.00 92 1018.4
20260504041552 6 328 0.0 0.0 0.00 0.00 0.00 92 1018.0
20260504041053 6 328 0.0 0.0 0.00 0.00 0.00 92 1018.3
20260504040552 6 328 0.0 0.0 0.00 0.00 0.00 92 1018.1
20260504040054 6 328 0.0 0.0 0.00 0.00 0.00 91 1018.2
20260504035553 6 329 0.0 0.0 0.00 0.00 0.00 91 1018.1
20260504034054 6 328 0.0 0.0 0.00 0.00 0.00 91 1018.1
20260504033540 6 328 0.0 0.0 0.00 0.00 0.00 91 1018.1
20260504033041 6 328 0.0 0.0 0.00 0.00 0.00 91 1018.0
20260504032540 6 328 0.0 0.0 0.00 0.00 0.00 90 1018.0
20260504032040 6 328 0.0 0.0 0.00 0.00 0.00 90 1018.1
20260504031539 6 328 0.0 0.0 0.00 0.00 0.00 90 1018.0
20260504030540 6 327 0.0 3.2 0.00 0.00 0.00 89 1018.0
20260504030040 6 330 0.0 3.2 0.00 0.00 0.00 89 1017.9
20260504025040 6 346 0.0 0.0 0.00 0.00 0.00 90 1018.0
20260504024540 6 347 0.0 0.0 0.00 0.00 0.00 89 1018.0
20260504024015 6 346 0.0 0.0 0.00 0.00 0.00 90 1018.1
20260504023503 6 351 0.0 0.0 0.00 0.00 0.00 89 1018.3
20260504023004 6 351 0.0 0.0 0.00 0.00 0.00 88 1018.1
20260504022504 6 351 0.0 0.0 0.00 0.00 0.00 88 1018.0
20260504022005 6 351 0.0 0.0 0.00 0.00 0.00 88 1018.1
20260504021442 6 351 0.0 0.0 0.00 0.00 0.00 89 1018.3
20260504020942 6 351 0.0 0.0 0.00 0.00 0.00 89 1018.2
20260504015928 6 351 0.0 0.0 0.00 0.00 0.00 88 1017.9
20260504014905 6 350 0.0 0.0 0.00 0.00 0.00 87 1018.1
20260504014404 6 350 0.0 0.0 0.00 0.00 0.00 86 1017.9
20260504013903 7 350 0.0 0.0 0.00 0.00 0.00 86 1018.0
20260504012905 7 350 0.0 0.0 0.00 0.00 0.00 85 1018.0
20260504012352 7 350 0.0 0.0 0.00 0.00 0.00 85 1018.0
20260504011839 7 350 0.0 0.0 0.00 0.00 0.00 85 1018.3
20260504010342 7 350 0.0 0.0 0.00 0.00 0.00 84 1018.0
20260504005840 7 350 0.0 0.0 0.00 0.00 0.00 84 1017.9
20260504005340 7 350 0.0 0.0 0.00 0.00 0.00 83 1018.1
20260504004840 7 350 0.0 0.0 0.00 0.00 0.00 83 1018.2
20260504003840 7 350 0.0 0.0 0.00 0.00 0.00 82 1018.0
20260504002841 8 350 0.0 0.0 0.00 0.00 0.00 81 1017.9
20260504002340 8 350 0.0 0.0 0.00 0.00 0.00 80 1018.0
20260504001841 8 350 0.0 0.0 0.00 0.00 0.00 80 1017.9
20260504001342 8 350 0.0 0.0 0.00 0.00 0.00 79 1018.0
20260504000840 8 350 0.0 1.6 0.00 0.00 0.00 78 1018.0
20260504000343 8 349 0.0 1.6 0.00 0.00 0.00 78 1018.0
20260503235840 8 9 0.0 0.0 0.00 0.00 0.00 79 1018.3
20260503235341 8 11 0.0 0.0 0.00 0.00 0.00 79 1018.0
20260503234815 8 11 0.0 1.6 0.00 0.00 0.00 79 1018.2
20260503233252 8 13 0.0 0.0 0.00 0.00 0.00 78 1018.2
20260503232753 8 13 0.0 0.0 0.00 0.00 0.00 78 1018.1
20260503231254 9 13 0.0 0.0 0.00 0.00 0.00 76 1018.1
20260503230752 9 13 0.0 0.0 0.00 0.00 0.00 77 1018.2
20260503230253 9 13 0.0 0.0 0.00 0.00 0.00 77 1018.2
20260503225753 9 13 0.0 0.0 0.00 0.00 0.00 75 1018.2
20260503225241 10 13 0.0 0.0 0.00 0.00 0.00 75 1018.2
20260503224740 10 11 0.0 0.0 0.00 0.00 0.00 75 1018.2
20260503224239 10 12 0.0 0.0 0.00 0.00 0.00 74 1018.2
20260503223741 10 12 0.0 1.6 0.00 0.00 0.00 74 1018.4
20260503223241 10 11 0.0 1.6 0.00 0.00 0.00 74 1018.3
20260503222728 10 14 0.0 0.0 0.00 0.00 0.00 74 1018.2
20260503222229 10 15 0.0 1.6 0.00 0.00 0.00 74 1018.3
20260503221728 10 14 0.0 1.6 0.00 0.00 0.00 75 1018.4
20260503221216 10 14 0.0 1.6 0.00 0.00 0.00 75 1018.5
20260503215717 11 15 0.0 1.6 0.00 0.00 0.00 75 1018.1
20260503215216 11 15 0.0 1.6 0.00 0.00 0.00 73 1018.0
20260503214708 11 13 0.0 1.6 0.00 0.00 0.00 73 1018.1
20260503214154 11 13 0.0 1.6 0.00 0.00 0.00 74 1018.0
20260503213151 11 23 0.0 1.6 0.00 0.00 0.00 73 1017.9
20260503212658 11 22 0.0 1.6 0.00 0.00 0.00 73 1018.1
20260503212151 11 72 0.0 0.0 0.00 0.00 0.00 73 1018.2
20260503211659 12 72 0.0 0.0 0.00 0.00 0.00 72 1018.1
20260503211154 12 72 0.0 0.0 0.00 0.00 0.00 72 1017.9
20260503210142 12 71 0.0 0.0 0.00 0.00 0.00 72 1017.9
20260503205142 12 71 0.0 1.6 0.00 0.00 0.00 71 1018.0
20260503204140 13 12 0.0 0.0 0.00 0.00 0.00 69 1018.0
20260503203142 13 6 0.0 0.0 0.00 0.00 0.00 69 1017.8
20260503202629 13 13 0.0 0.0 0.00 0.00 0.00 69 1017.8
20260503202129 13 348 0.0 0.0 0.00 0.00 0.00 68 1017.7
20260503201628 13 344 0.0 0.0 0.00 0.00 0.00 68 1017.7
20260503201115 14 344 0.0 0.0 0.00 0.00 0.00 68 1017.7